Time,TemperatureF,DewpointF,PressureIn,WindDirection,WindDirectionDegrees,WindSpeedMPH,WindSpeedGustMPH,Humidity,HourlyPrecipIn,Conditions,Clouds,dailyrainin,SoftwareType,DateUTC
2013-01-18 00:03:00,26.8,25.3,30.36,North,0,0.0,0.0,94,0.00,,---,0.00,VWS V14.01,2013-01-18 08:03:00,
2013-01-18 00:08:00,26.8,25.3,30.36,North,0,0.0,0.0,94,0.00,,---,0.00,VWS V14.01,2013-01-18 08:08:00,
2013-01-18 00:13:00,26.6,25.4,30.36,North,0,0.0,0.0,95,0.00,,---,0.00,VWS V14.01,2013-01-18 08:13:00,
2013-01-18 00:18:00,26.4,25.2,30.36,North,0,0.0,0.0,95,0.00,,---,0.00,VWS V14.01,2013-01-18 08:18:00,
2013-01-18 00:23:00,26.2,25.0,30.36,North,0,0.0,0.0,95,0.00,,---,0.00,VWS V14.01,2013-01-18 08:23:00,
2013-01-18 00:28:00,26.1,24.8,30.36,North,0,0.0,0.0,95,0.00,,---,0.00,VWS V14.01,2013-01-18 08:28:00,
2013-01-18 00:33:00,25.9,24.6,30.36,North,0,0.0,0.0,95,0.00,,---,0.00,VWS V14.01,2013-01-18 08:33:00,
2013-01-18 00:38:00,25.7,24.5,30.36,North,0,0.0,0.0,95,0.00,,---,0.00,VWS V14.01,2013-01-18 08:38:00,
2013-01-18 00:43:00,25.5,24.3,30.36,North,0,0.0,0.0,95,0.00,,---,0.00,VWS V14.01,2013-01-18 08:43:00,
2013-01-18 00:48:00,25.3,24.1,30.36,North,0,0.0,0.0,95,0.00,,---,0.00,VWS V14.01,2013-01-18 08:48:00,
2013-01-18 00:53:00,25.5,24.3,30.36,North,0,0.0,0.0,95,0.00,,---,0.00,VWS V14.01,2013-01-18 08:53:00,
2013-01-18 00:58:00,25.5,24.5,30.36,North,0,0.0,0.0,96,0.00,,---,0.00,VWS V14.01,2013-01-18 08:58:00,
2013-01-18 01:03:00,25.2,24.2,30.36,North,0,0.0,0.0,96,0.00,,---,0.00,VWS V14.01,2013-01-18 09:03:00,
2013-01-18 01:09:00,25.2,24.2,30.36,North,0,0.0,0.0,96,0.00,,---,0.00,VWS V14.01,2013-01-18 09:09:00,
2013-01-18 01:14:00,25.2,24.2,30.36,North,0,0.0,0.0,96,0.00,,---,0.00,VWS V14.01,2013-01-18 09:14:00,
2013-01-18 01:19:00,25.0,24.0,30.36,North,0,0.0,0.0,96,0.00,,---,0.00,VWS V14.01,2013-01-18 09:19:00,
2013-01-18 01:24:00,24.8,23.8,30.36,North,0,0.0,0.0,96,0.00,,---,0.00,VWS V14.01,2013-01-18 09:24:00,
2013-01-18 01:29:00,24.8,23.8,30.36,North,0,0.0,0.0,96,0.00,,---,0.00,VWS V14.01,2013-01-18 09:29:00,
2013-01-18 01:34:00,25.2,24.2,30.36,North,0,0.0,0.0,96,0.00,,---,0.00,VWS V14.01,2013-01-18 09:34:00,
2013-01-18 01:39:00,25.2,24.2,30.36,North,0,0.0,0.0,96,0.00,,---,0.00,VWS V14.01,2013-01-18 09:39:00,
2013-01-18 01:44:00,24.8,23.8,30.36,North,0,0.0,0.0,96,0.00,,---,0.00,VWS V14.01,2013-01-18 09:44:00,
2013-01-18 01:49:00,25.0,24.0,30.36,North,0,0.0,0.0,96,0.00,,---,0.00,VWS V14.01,2013-01-18 09:49:00,
2013-01-18 01:54:00,24.8,23.8,30.36,North,0,0.0,0.0,96,0.00,,---,0.00,VWS V14.01,2013-01-18 09:54:00,
2013-01-18 01:59:00,24.6,23.6,30.36,North,0,0.0,0.0,96,0.00,,---,0.00,VWS V14.01,2013-01-18 09:59:00,
2013-01-18 02:04:00,24.4,23.5,30.36,North,0,0.0,0.0,96,0.00,,---,0.00,VWS V14.01,2013-01-18 10:04:00,
2013-01-18 02:09:00,24.3,23.3,30.36,North,0,0.0,0.0,96,0.00,,---,0.00,VWS V14.01,2013-01-18 10:09:00,
2013-01-18 02:14:00,24.3,23.3,30.36,North,0,0.0,0.0,96,0.00,,---,0.00,VWS V14.01,2013-01-18 10:14:00,
2013-01-18 02:19:00,24.6,23.6,30.36,North,0,0.0,0.0,96,0.00,,---,0.00,VWS V14.01,2013-01-18 10:19:00,
2013-01-18 02:24:00,24.6,23.6,30.36,North,0,0.0,0.0,96,0.00,,---,0.00,VWS V14.01,2013-01-18 10:24:00,
2013-01-18 02:30:00,24.6,23.6,30.36,North,0,0.0,0.0,96,0.00,,---,0.00,VWS V14.01,2013-01-18 10:30:00,
2013-01-18 02:35:00,24.8,23.8,30.36,North,0,0.0,0.0,96,0.00,,---,0.00,VWS V14.01,2013-01-18 10:35:00,
2013-01-18 02:40:00,24.6,23.6,30.36,North,0,0.0,0.0,96,0.00,,---,0.00,VWS V14.01,2013-01-18 10:40:00,
2013-01-18 02:45:00,24.4,23.5,30.36,North,0,0.0,0.0,96,0.00,,---,0.00,VWS V14.01,2013-01-18 10:45:00,
2013-01-18 02:50:00,24.3,23.0,30.36,North,0,0.0,0.0,95,0.00,,---,0.00,VWS V14.01,2013-01-18 10:50:00,
2013-01-18 02:55:00,24.3,23.0,30.36,North,0,0.0,0.0,95,0.00,,---,0.00,VWS V14.01,2013-01-18 10:55:00,
2013-01-18 03:00:00,24.1,22.9,30.36,North,0,0.0,0.0,95,0.00,,---,0.00,VWS V14.01,2013-01-18 11:00:00,
2013-01-18 03:05:00,24.1,22.9,30.36,North,0,0.0,0.0,95,0.00,,---,0.00,VWS V14.01,2013-01-18 11:05:00,
2013-01-18 03:10:00,24.1,22.9,30.36,North,0,0.0,0.0,95,0.00,,---,0.00,VWS V14.01,2013-01-18 11:10:00,
2013-01-18 03:15:00,24.1,23.1,30.36,North,0,0.0,0.0,96,0.00,,---,0.00,VWS V14.01,2013-01-18 11:15:00,
2013-01-18 03:20:00,24.1,23.1,30.36,North,0,0.0,0.0,96,0.00,,---,0.00,VWS V14.01,2013-01-18 11:20:00,
2013-01-18 03:25:00,24.1,23.1,30.36,North,0,0.0,0.0,96,0.00,,---,0.00,VWS V14.01,2013-01-18 11:25:00,
2013-01-18 03:30:00,24.3,23.3,30.36,North,0,0.0,0.0,96,0.00,,---,0.00,VWS V14.01,2013-01-18 11:30:00,
2013-01-18 03:35:00,24.1,23.1,30.33,North,0,0.0,0.0,96,0.00,,---,0.00,VWS V14.01,2013-01-18 11:35:00,
2013-01-18 03:40:00,24.1,23.1,30.33,North,0,0.0,0.0,96,0.00,,---,0.00,VWS V14.01,2013-01-18 11:40:00,
2013-01-18 03:45:00,24.1,23.1,30.33,North,0,0.0,0.0,96,0.00,,---,0.00,VWS V14.01,2013-01-18 11:45:00,
2013-01-18 03:50:00,23.9,22.7,30.33,North,0,0.0,0.0,95,0.00,,---,0.00,VWS V14.01,2013-01-18 11:50:00,
2013-01-18 03:55:00,23.7,22.5,30.33,North,0,0.0,0.0,95,0.00,,---,0.00,VWS V14.01,2013-01-18 11:55:00,
2013-01-18 04:00:00,23.7,22.5,30.33,North,0,0.0,0.0,95,0.00,,---,0.00,VWS V14.01,2013-01-18 12:00:00,
2013-01-18 04:05:00,23.5,22.3,30.33,North,0,0.0,0.0,95,0.00,,---,0.00,VWS V14.01,2013-01-18 12:05:00,
2013-01-18 04:10:00,23.7,22.5,30.33,North,0,0.0,0.0,95,0.00,,---,0.00,VWS V14.01,2013-01-18 12:10:00,
2013-01-18 04:15:00,23.5,22.3,30.33,North,0,0.0,0.0,95,0.00,,---,0.00,VWS V14.01,2013-01-18 12:15:00,
2013-01-18 04:20:00,23.5,22.3,30.33,North,0,0.0,0.0,95,0.00,,---,0.00,VWS V14.01,2013-01-18 12:20:00,
2013-01-18 04:25:00,23.5,22.6,30.33,North,0,0.0,0.0,96,0.00,,---,0.00,VWS V14.01,2013-01-18 12:25:00,
2013-01-18 04:30:00,23.4,22.4,30.33,North,0,0.0,0.0,96,0.00,,---,0.00,VWS V14.01,2013-01-18 12:30:00,
2013-01-18 04:36:00,23.5,22.6,30.33,North,0,0.0,0.0,96,0.00,,---,0.00,VWS V14.01,2013-01-18 12:36:00,
2013-01-18 04:41:00,23.5,22.6,30.33,North,0,0.0,0.0,96,0.00,,---,0.00,VWS V14.01,2013-01-18 12:41:00,
2013-01-18 04:46:00,23.5,22.6,30.33,North,0,0.0,0.0,96,0.00,,---,0.00,VWS V14.01,2013-01-18 12:46:00,
2013-01-18 04:51:00,23.5,22.6,30.33,North,0,0.0,0.0,96,0.00,,---,0.00,VWS V14.01,2013-01-18 12:51:00,
2013-01-18 04:56:00,23.5,22.6,30.33,North,0,0.0,0.0,96,0.00,,---,0.00,VWS V14.01,2013-01-18 12:56:00,
2013-01-18 05:01:00,23.4,22.4,30.33,North,0,0.0,0.0,96,0.00,,---,0.00,VWS V14.01,2013-01-18 13:01:00,
2013-01-18 05:06:00,23.5,22.6,30.33,North,0,0.0,0.0,96,0.00,,---,0.00,VWS V14.01,2013-01-18 13:06:00,
2013-01-18 05:11:00,23.5,22.6,30.33,North,0,0.0,0.0,96,0.00,,---,0.00,VWS V14.01,2013-01-18 13:11:00,
2013-01-18 05:16:00,23.4,22.4,30.33,North,0,0.0,0.0,96,0.00,,---,0.00,VWS V14.01,2013-01-18 13:16:00,
2013-01-18 05:21:00,23.4,22.1,30.33,North,0,0.0,0.0,95,0.00,,---,0.00,VWS V14.01,2013-01-18 13:21:00,
2013-01-18 05:26:00,23.2,22.0,30.33,North,0,0.0,0.0,95,0.00,,---,0.00,VWS V14.01,2013-01-18 13:26:00,
2013-01-18 05:31:00,23.4,22.1,30.33,North,0,0.0,0.0,95,0.00,,---,0.00,VWS V14.01,2013-01-18 13:31:00,
2013-01-18 05:36:00,23.2,22.0,30.33,North,0,0.0,0.0,95,0.00,,---,0.00,VWS V14.01,2013-01-18 13:36:00,
2013-01-18 05:41:00,23.2,22.2,30.33,North,0,0.0,0.0,96,0.00,,---,0.00,VWS V14.01,2013-01-18 13:41:00,
2013-01-18 05:46:00,23.2,22.2,30.33,North,0,0.0,0.0,96,0.00,,---,0.00,VWS V14.01,2013-01-18 13:46:00,
2013-01-18 05:51:00,23.2,22.2,30.33,North,0,0.0,0.0,96,0.00,,---,0.00,VWS V14.01,2013-01-18 13:51:00,
2013-01-18 05:56:00,23.0,22.0,30.33,North,0,0.0,0.0,96,0.00,,---,0.00,VWS V14.01,2013-01-18 13:56:00,
2013-01-18 06:01:00,23.0,22.0,30.33,North,0,0.0,0.0,96,0.00,,---,0.00,VWS V14.01,2013-01-18 14:01:00,
2013-01-18 06:06:00,23.2,22.2,30.33,North,0,0.0,0.0,96,0.00,,---,0.00,VWS V14.01,2013-01-18 14:06:00,
2013-01-18 06:11:00,23.0,22.0,30.33,North,0,0.0,0.0,96,0.00,,---,0.00,VWS V14.01,2013-01-18 14:11:00,
2013-01-18 06:16:00,23.0,22.0,30.33,North,0,0.0,0.0,96,0.00,,---,0.00,VWS V14.01,2013-01-18 14:16:00,
2013-01-18 06:21:00,22.8,21.9,30.33,North,0,0.0,0.0,96,0.00,,---,0.00,VWS V14.01,2013-01-18 14:21:00,
2013-01-18 06:26:00,22.8,21.9,30.33,North,0,0.0,0.0,96,0.00,,---,0.00,VWS V14.01,2013-01-18 14:26:00,
2013-01-18 06:31:00,22.6,21.4,30.33,North,0,0.0,0.0,95,0.00,,---,0.00,VWS V14.01,2013-01-18 14:31:00,
2013-01-18 06:37:00,22.6,21.4,30.33,North,0,0.0,0.0,95,0.00,,---,0.00,VWS V14.01,2013-01-18 14:37:00,
2013-01-18 06:42:00,22.5,21.2,30.33,North,0,0.0,0.0,95,0.00,,---,0.00,VWS V14.01,2013-01-18 14:42:00,
2013-01-18 06:47:00,22.5,21.2,30.33,North,0,0.0,0.0,95,0.00,,---,0.00,VWS V14.01,2013-01-18 14:47:00,
2013-01-18 06:52:00,22.6,21.7,30.33,North,0,0.0,0.0,96,0.00,,---,0.00,VWS V14.01,2013-01-18 14:52:00,
2013-01-18 06:57:00,22.5,21.5,30.33,North,0,0.0,0.0,96,0.00,,---,0.00,VWS V14.01,2013-01-18 14:57:00,
2013-01-18 07:02:00,22.5,21.5,30.33,North,0,0.0,0.0,96,0.00,,---,0.00,VWS V14.01,2013-01-18 15:02:00,
2013-01-18 07:07:00,22.6,21.7,30.33,North,0,0.0,0.0,96,0.00,,---,0.00,VWS V14.01,2013-01-18 15:07:00,
2013-01-18 07:12:00,22.5,21.5,30.33,North,0,0.0,0.0,96,0.00,,---,0.00,VWS V14.01,2013-01-18 15:12:00,
2013-01-18 07:17:00,22.5,21.5,30.33,North,0,0.0,0.0,96,0.00,,---,0.00,VWS V14.01,2013-01-18 15:17:00,
2013-01-18 07:22:00,22.5,21.5,30.33,North,0,0.0,0.0,96,0.00,,---,0.00,VWS V14.01,2013-01-18 15:22:00,
2013-01-18 07:27:00,22.5,21.5,30.33,North,0,0.0,0.0,96,0.00,,---,0.00,VWS V14.01,2013-01-18 15:27:00,
2013-01-18 07:32:00,22.5,21.5,30.33,North,0,0.0,0.0,96,0.00,,---,0.00,VWS V14.01,2013-01-18 15:32:00,
2013-01-18 07:37:00,22.3,21.3,30.33,North,0,0.0,0.0,96,0.00,,---,0.00,VWS V14.01,2013-01-18 15:37:00,
2013-01-18 07:42:00,22.5,21.5,30.33,North,0,0.0,0.0,96,0.00,,---,0.00,VWS V14.01,2013-01-18 15:42:00,
2013-01-18 07:47:00,22.3,21.3,30.33,North,0,0.0,0.0,96,0.00,,---,0.00,VWS V14.01,2013-01-18 15:47:00,
2013-01-18 07:52:00,22.3,21.3,30.33,North,0,0.0,0.0,96,0.00,,---,0.00,VWS V14.01,2013-01-18 15:52:00,
2013-01-18 07:58:00,22.3,21.3,30.33,North,0,0.0,0.0,96,0.00,,---,0.00,VWS V14.01,2013-01-18 15:58:00,
2013-01-18 08:03:00,22.3,21.3,30.33,North,0,0.0,0.0,96,0.00,,---,0.00,VWS V14.01,2013-01-18 16:03:00,
2013-01-18 08:08:00,22.3,21.3,30.33,North,0,0.0,0.0,96,0.00,,---,0.00,VWS V14.01,2013-01-18 16:08:00,
2013-01-18 08:13:00,22.5,21.7,30.33,North,0,0.0,0.0,97,0.00,,---,0.00,VWS V14.01,2013-01-18 16:13:00,
2013-01-18 08:18:00,22.5,21.7,30.33,North,0,0.0,0.0,97,0.00,,---,0.00,VWS V14.01,2013-01-18 16:18:00,
2013-01-18 08:23:00,22.8,22.1,30.33,North,0,0.0,0.0,97,0.00,,---,0.00,VWS V14.01,2013-01-18 16:23:00,
2013-01-18 08:28:00,23.2,22.5,30.33,North,0,0.0,0.0,97,0.00,,---,0.00,VWS V14.01,2013-01-18 16:28:00,
2013-01-18 08:33:00,23.4,22.6,30.36,North,0,0.0,0.0,97,0.00,,---,0.00,VWS V14.01,2013-01-18 16:33:00,
2013-01-18 08:38:00,23.5,22.8,30.36,North,0,0.0,0.0,97,0.00,,---,0.00,VWS V14.01,2013-01-18 16:38:00,
2013-01-18 08:43:00,24.1,23.4,30.36,North,0,0.0,0.0,97,0.00,,---,0.00,VWS V14.01,2013-01-18 16:43:00,
2013-01-18 08:48:00,24.4,24.0,30.36,North,0,0.0,0.0,98,0.00,,---,0.00,VWS V14.01,2013-01-18 16:48:00,
2013-01-18 08:54:00,25.7,25.2,30.36,North,0,0.0,0.0,98,0.00,,---,0.00,VWS V14.01,2013-01-18 16:54:00,
2013-01-18 08:59:00,27.9,27.4,30.36,North,0,0.0,0.0,98,0.00,,---,0.00,VWS V14.01,2013-01-18 16:59:00,
2013-01-18 09:04:00,28.9,28.5,30.36,North,0,0.0,0.0,98,0.00,,---,0.00,VWS V14.01,2013-01-18 17:04:00,
2013-01-18 09:09:00,29.7,29.2,30.36,North,0,0.0,0.0,98,0.00,,---,0.00,VWS V14.01,2013-01-18 17:09:00,
2013-01-18 09:14:00,29.7,29.2,30.36,North,0,0.0,0.0,98,0.00,,---,0.00,VWS V14.01,2013-01-18 17:14:00,
2013-01-18 09:19:00,29.3,28.6,30.36,North,0,0.0,0.0,97,0.00,,---,0.00,VWS V14.01,2013-01-18 17:19:00,
2013-01-18 09:24:00,29.3,28.3,30.36,North,0,0.0,0.0,96,0.00,,---,0.00,VWS V14.01,2013-01-18 17:24:00,
2013-01-18 09:29:00,29.7,28.7,30.36,South,180,0.0,0.0,96,0.00,,---,0.00,VWS V14.01,2013-01-18 17:29:00,
2013-01-18 09:34:00,30.7,29.7,30.36,South,180,0.0,0.0,96,0.00,,---,0.00,VWS V14.01,2013-01-18 17:34:00,
2013-01-18 09:39:00,32.0,31.2,30.36,South,180,0.0,0.0,97,0.00,,---,0.00,VWS V14.01,2013-01-18 17:39:00,
2013-01-18 09:44:00,33.3,32.5,30.36,South,180,0.0,0.0,97,0.00,,---,0.00,VWS V14.01,2013-01-18 17:44:00,
2013-01-18 09:49:00,35.6,34.8,30.36,South,180,0.0,0.0,97,0.00,,---,0.00,VWS V14.01,2013-01-18 17:49:00,
2013-01-18 09:54:00,37.0,36.3,30.36,East,90,0.0,0.0,97,0.00,,---,0.00,VWS V14.01,2013-01-18 17:54:00,
2013-01-18 09:59:00,37.9,36.9,30.36,South,180,0.0,0.0,96,0.00,,---,0.00,VWS V14.01,2013-01-18 17:59:00,
2013-01-18 10:05:00,39.4,37.5,30.36,ENE,68,0.0,0.0,93,0.00,,---,0.00,VWS V14.01,2013-01-18 18:05:00,
2013-01-18 10:10:00,39.4,36.7,30.36,ENE,68,0.0,0.0,90,0.00,,---,0.00,VWS V14.01,2013-01-18 18:10:00,
2013-01-18 10:15:00,39.7,35.9,30.36,SE,135,0.0,0.0,86,0.00,,---,0.00,VWS V14.01,2013-01-18 18:15:00,
2013-01-18 10:20:00,39.7,35.9,30.36,East,90,0.0,0.0,86,0.00,,---,0.00,VWS V14.01,2013-01-18 18:20:00,
2013-01-18 10:25:00,40.5,35.7,30.36,SSE,158,0.0,0.0,83,0.00,,---,0.00,VWS V14.01,2013-01-18 18:25:00,
2013-01-18 10:30:00,42.3,37.8,30.36,South,180,0.0,0.0,84,0.00,,---,0.00,VWS V14.01,2013-01-18 18:30:00,
2013-01-18 10:35:00,43.3,37.6,30.36,SSE,158,0.0,0.0,80,0.00,,---,0.00,VWS V14.01,2013-01-18 18:35:00,
2013-01-18 10:40:00,44.4,37.7,30.36,SSE,158,0.0,0.0,77,0.00,,---,0.00,VWS V14.01,2013-01-18 18:40:00,
2013-01-18 10:45:00,44.8,38.3,30.36,ENE,68,0.0,0.0,78,0.00,,---,0.00,VWS V14.01,2013-01-18 18:45:00,
2013-01-18 10:50:00,45.1,37.7,30.36,ENE,68,0.0,0.0,75,0.00,,---,0.00,VWS V14.01,2013-01-18 18:50:00,
2013-01-18 10:55:00,45.3,35.8,30.36,South,180,0.0,0.0,69,0.00,,---,0.00,VWS V14.01,2013-01-18 18:55:00,
2013-01-18 11:00:00,46.2,36.6,30.36,South,180,0.0,0.0,69,0.00,,---,0.00,VWS V14.01,2013-01-18 19:00:00,
2013-01-18 11:05:00,46.0,36.5,30.36,NE,45,0.0,0.0,69,0.00,,---,0.00,VWS V14.01,2013-01-18 19:05:00,
2013-01-18 11:11:00,45.9,35.2,30.36,ENE,68,0.0,0.0,66,0.00,,---,0.00,VWS V14.01,2013-01-18 19:11:00,
2013-01-18 11:16:00,46.0,35.3,30.36,ESE,112,0.0,0.0,66,0.00,,---,0.00,VWS V14.01,2013-01-18 19:16:00,
2013-01-18 11:21:00,45.7,34.2,30.36,ENE,68,0.0,0.0,64,0.00,,---,0.00,VWS V14.01,2013-01-18 19:21:00,
2013-01-18 11:26:00,46.2,35.5,30.36,ENE,68,0.0,0.0,66,0.00,,---,0.00,VWS V14.01,2013-01-18 19:26:00,
2013-01-18 11:31:00,47.1,36.7,30.36,ENE,68,0.0,0.0,67,0.00,,---,0.00,VWS V14.01,2013-01-18 19:31:00,
2013-01-18 11:36:00,46.8,34.4,30.33,NNE,22,1.3,1.3,62,0.00,,---,0.00,VWS V14.01,2013-01-18 19:36:00,
2013-01-18 11:41:00,46.8,34.4,30.33,ENE,68,0.0,1.3,62,0.00,,---,0.00,VWS V14.01,2013-01-18 19:41:00,
2013-01-18 11:46:00,47.3,35.4,30.33,NE,45,0.0,0.0,63,0.00,,---,0.00,VWS V14.01,2013-01-18 19:46:00,
2013-01-18 11:52:00,47.7,36.1,30.33,ENE,68,2.0,2.0,64,0.00,,---,0.00,VWS V14.01,2013-01-18 19:52:00,
2013-01-18 11:57:00,48.6,37.0,30.33,East,90,0.0,0.0,64,0.00,,---,0.00,VWS V14.01,2013-01-18 19:57:00,
2013-01-18 12:02:00,49.6,38.0,30.33,SE,135,0.0,0.0,64,0.00,,---,0.00,VWS V14.01,2013-01-18 20:02:00,
2013-01-18 12:07:00,50.5,38.8,30.33,ENE,68,0.0,0.0,64,0.00,,---,0.00,VWS V14.01,2013-01-18 20:07:00,
2013-01-18 12:12:00,51.4,39.3,30.33,SE,135,0.0,0.0,63,0.00,,---,0.00,VWS V14.01,2013-01-18 20:12:00,
2013-01-18 12:17:00,51.6,38.6,30.33,ENE,68,0.0,0.0,61,0.00,,---,0.00,VWS V14.01,2013-01-18 20:17:00,
2013-01-18 12:22:00,52.0,38.5,30.33,ENE,68,0.0,0.0,60,0.00,,---,0.00,VWS V14.01,2013-01-18 20:22:00,
2013-01-18 12:27:00,52.9,39.4,30.33,ENE,68,0.0,0.0,60,0.00,,---,0.00,VWS V14.01,2013-01-18 20:27:00,
2013-01-18 12:32:00,53.4,38.6,30.33,SE,135,0.0,0.0,57,0.00,,---,0.00,VWS V14.01,2013-01-18 20:32:00,
2013-01-18 12:37:00,53.8,37.5,30.33,SSE,158,0.0,0.0,54,0.00,,---,0.00,VWS V14.01,2013-01-18 20:37:00,
2013-01-18 12:42:00,54.9,39.9,30.33,East,90,0.0,0.0,57,0.00,,---,0.00,VWS V14.01,2013-01-18 20:42:00,
2013-01-18 12:47:00,55.6,39.2,30.33,ENE,68,0.0,0.0,54,0.00,,---,0.00,VWS V14.01,2013-01-18 20:47:00,
2013-01-18 12:53:00,55.6,38.2,30.33,ESE,112,0.0,0.0,52,0.00,,---,0.00,VWS V14.01,2013-01-18 20:53:00,
2013-01-18 12:58:00,55.9,38.1,30.33,SSW,202,0.0,0.0,51,0.00,,---,0.00,VWS V14.01,2013-01-18 20:58:00,
2013-01-18 13:03:00,54.5,36.8,30.33,SW,225,0.0,0.0,51,0.00,,---,0.00,VWS V14.01,2013-01-18 21:03:00,
2013-01-18 13:08:00,55.4,37.1,30.33,West,270,0.0,0.0,50,0.00,,---,0.00,VWS V14.01,2013-01-18 21:08:00,
2013-01-18 13:13:00,55.8,36.4,30.33,NE,45,0.0,0.0,48,0.00,,---,0.00,VWS V14.01,2013-01-18 21:13:00,
2013-01-18 13:18:00,55.6,36.2,30.33,South,180,0.0,0.0,48,0.00,,---,0.00,VWS V14.01,2013-01-18 21:18:00,
2013-01-18 13:23:00,54.9,36.6,30.33,WSW,248,0.0,0.0,50,0.00,,---,0.00,VWS V14.01,2013-01-18 21:23:00,
2013-01-18 13:28:00,55.4,36.6,30.33,NNE,22,0.0,0.0,49,0.00,,---,0.00,VWS V14.01,2013-01-18 21:28:00,
2013-01-18 13:33:00,54.5,35.2,30.30,ENE,68,0.0,0.0,48,0.00,,---,0.00,VWS V14.01,2013-01-18 21:33:00,
2013-01-18 13:38:00,54.3,35.6,30.30,NE,45,0.0,0.0,49,0.00,,---,0.00,VWS V14.01,2013-01-18 21:38:00,
2013-01-18 13:43:00,54.9,35.6,30.30,ENE,68,0.0,0.0,48,0.00,,---,0.00,VWS V14.01,2013-01-18 21:43:00,
2013-01-18 13:48:00,55.9,36.5,30.30,NW,315,0.0,0.0,48,0.00,,---,0.00,VWS V14.01,2013-01-18 21:48:00,
2013-01-18 13:53:00,56.8,37.4,30.30,NNW,338,0.0,0.0,48,0.00,,---,0.00,VWS V14.01,2013-01-18 21:53:00,
2013-01-18 13:58:00,57.2,37.2,30.30,NNE,22,0.0,0.0,47,0.00,,---,0.00,VWS V14.01,2013-01-18 21:58:00,
2013-01-18 14:03:00,57.6,37.0,30.30,North,0,0.0,0.0,46,0.00,,---,0.00,VWS V14.01,2013-01-18 22:03:00,
2013-01-18 14:08:00,57.6,37.0,30.30,NNW,338,0.0,0.0,46,0.00,,---,0.00,VWS V14.01,2013-01-18 22:08:00,
2013-01-18 14:13:00,58.8,38.1,30.30,NNW,338,0.0,0.0,46,0.00,,---,0.00,VWS V14.01,2013-01-18 22:13:00,
2013-01-18 14:19:00,59.9,39.6,30.30,WNW,292,0.0,0.0,47,0.00,,---,0.00,VWS V14.01,2013-01-18 22:19:00,
2013-01-18 14:24:00,59.7,39.5,30.30,WNW,292,0.0,0.0,47,0.00,,---,0.00,VWS V14.01,2013-01-18 22:24:00,
2013-01-18 14:29:00,59.7,39.5,30.30,SW,225,0.0,0.0,47,0.00,,---,0.00,VWS V14.01,2013-01-18 22:29:00,
2013-01-18 14:34:00,60.3,40.0,30.30,WSW,248,0.0,0.0,47,0.00,,---,0.00,VWS V14.01,2013-01-18 22:34:00,
2013-01-18 14:39:00,60.4,39.6,30.30,WSW,248,0.0,0.0,46,0.00,,---,0.00,VWS V14.01,2013-01-18 22:39:00,
2013-01-18 14:44:00,60.8,39.3,30.30,WSW,248,0.0,0.0,45,0.00,,---,0.00,VWS V14.01,2013-01-18 22:44:00,
2013-01-18 14:49:00,61.0,38.9,30.30,WSW,248,0.0,0.0,44,0.00,,---,0.00,VWS V14.01,2013-01-18 22:49:00,
2013-01-18 14:54:00,60.4,39.0,30.30,WSW,248,0.0,0.0,45,0.00,,---,0.00,VWS V14.01,2013-01-18 22:54:00,
2013-01-18 14:59:00,60.3,38.8,30.30,WSW,248,0.0,0.0,45,0.00,,---,0.00,VWS V14.01,2013-01-18 22:59:00,
2013-01-18 15:04:00,59.4,38.0,30.30,WSW,248,0.0,0.0,45,0.00,,---,0.00,VWS V14.01,2013-01-18 23:04:00,
2013-01-18 15:09:00,57.0,36.5,30.30,WSW,248,0.0,0.0,46,0.00,,---,0.00,VWS V14.01,2013-01-18 23:09:00,
2013-01-18 15:14:00,54.9,35.0,30.30,WSW,248,0.0,0.0,47,0.00,,---,0.00,VWS V14.01,2013-01-18 23:14:00,
2013-01-18 15:20:00,53.2,34.1,30.30,WSW,248,0.0,0.0,48,0.00,,---,0.00,VWS V14.01,2013-01-18 23:20:00,
2013-01-18 15:25:00,52.3,33.2,30.30,WSW,248,0.0,0.0,48,0.00,,---,0.00,VWS V14.01,2013-01-18 23:25:00,
2013-01-18 15:30:00,51.4,32.9,30.30,WSW,248,0.0,0.0,49,0.00,,---,0.00,VWS V14.01,2013-01-18 23:30:00,
2013-01-18 15:35:00,50.4,32.4,30.30,SW,225,0.0,0.0,50,0.00,,---,0.00,VWS V14.01,2013-01-18 23:35:00,
2013-01-18 15:40:00,49.6,32.8,30.30,SSW,202,0.0,0.0,52,0.00,,---,0.00,VWS V14.01,2013-01-18 23:40:00,
2013-01-18 15:45:00,48.9,32.6,30.30,SW,225,0.0,0.0,53,0.00,,---,0.00,VWS V14.01,2013-01-18 23:45:00,
2013-01-18 15:50:00,48.4,32.5,30.30,SW,225,0.0,0.0,54,0.00,,---,0.00,VWS V14.01,2013-01-18 23:50:00,
2013-01-18 15:55:00,47.8,32.5,30.30,SW,225,0.0,0.0,55,0.00,,---,0.00,VWS V14.01,2013-01-18 23:55:00,
2013-01-18 16:00:00,47.3,32.4,30.30,SW,225,0.0,0.0,56,0.00,,---,0.00,VWS V14.01,2013-01-19 00:00:00,
2013-01-18 16:05:00,46.8,32.8,30.30,SW,225,0.0,0.0,58,0.00,,---,0.00,VWS V14.01,2013-01-19 00:05:00,
2013-01-18 16:11:00,46.2,33.1,30.30,SW,225,0.0,0.0,60,0.00,,---,0.00,VWS V14.01,2013-01-19 00:11:00,
2013-01-18 16:16:00,45.7,32.6,30.30,SW,225,0.0,0.0,60,0.00,,---,0.00,VWS V14.01,2013-01-19 00:16:00,
2013-01-18 16:21:00,45.0,32.3,30.30,SW,225,0.0,0.0,61,0.00,,---,0.00,VWS V14.01,2013-01-19 00:21:00,
2013-01-18 16:26:00,44.2,32.5,30.30,SW,225,0.0,0.0,63,0.00,,---,0.00,VWS V14.01,2013-01-19 00:26:00,
2013-01-18 16:31:00,43.5,32.2,30.30,SW,225,0.0,0.0,64,0.00,,---,0.00,VWS V14.01,2013-01-19 00:31:00,
2013-01-18 16:36:00,43.0,32.4,30.30,SW,225,0.0,0.0,66,0.00,,---,0.00,VWS V14.01,2013-01-19 00:36:00,
2013-01-18 16:41:00,42.3,32.1,30.30,SW,225,0.0,0.0,67,0.00,,---,0.00,VWS V14.01,2013-01-19 00:41:00,
2013-01-18 16:46:00,41.4,31.6,30.30,SW,225,0.0,0.0,68,0.00,,---,0.00,VWS V14.01,2013-01-19 00:46:00,
2013-01-18 16:51:00,40.5,30.8,30.30,SW,225,0.0,0.0,68,0.00,,---,0.00,VWS V14.01,2013-01-19 00:51:00,
2013-01-18 16:57:00,40.1,30.4,30.30,SW,225,0.0,0.0,68,0.00,,---,0.00,VWS V14.01,2013-01-19 00:57:00,
2013-01-18 17:02:00,39.2,30.2,30.30,SW,225,0.0,0.0,70,0.00,,---,0.00,VWS V14.01,2013-01-19 01:02:00,
2013-01-18 17:07:00,38.7,30.1,30.30,SW,225,0.0,0.0,71,0.00,,---,0.00,VWS V14.01,2013-01-19 01:07:00,
2013-01-18 17:12:00,38.1,29.9,30.30,SW,225,0.0,0.0,72,0.00,,---,0.00,VWS V14.01,2013-01-19 01:12:00,
2013-01-18 17:17:00,37.6,29.7,30.30,SW,225,0.0,0.0,73,0.00,,---,0.00,VWS V14.01,2013-01-19 01:17:00,
2013-01-18 17:22:00,37.2,30.0,30.30,SW,225,0.0,0.0,75,0.00,,---,0.00,VWS V14.01,2013-01-19 01:22:00,
2013-01-18 17:27:00,36.9,29.7,30.30,SW,225,0.0,0.0,75,0.00,,---,0.00,VWS V14.01,2013-01-19 01:27:00,
2013-01-18 17:32:00,36.3,29.5,30.30,SW,225,0.0,0.0,76,0.00,,---,0.00,VWS V14.01,2013-01-19 01:32:00,
2013-01-18 17:37:00,36.1,29.6,30.33,SW,225,0.0,0.0,77,0.00,,---,0.00,VWS V14.01,2013-01-19 01:37:00,
2013-01-18 17:42:00,35.8,29.3,30.33,SW,225,0.0,0.0,77,0.00,,---,0.00,VWS V14.01,2013-01-19 01:42:00,
2013-01-18 17:48:00,35.4,29.2,30.33,SW,225,0.0,0.0,78,0.00,,---,0.00,VWS V14.01,2013-01-19 01:48:00,
2013-01-18 17:53:00,35.1,28.9,30.33,SW,225,0.0,0.0,78,0.00,,---,0.00,VWS V14.01,2013-01-19 01:53:00,
2013-01-18 17:58:00,34.7,28.9,30.33,SW,225,0.0,0.0,79,0.00,,---,0.00,VWS V14.01,2013-01-19 01:58:00,
2013-01-18 18:03:00,34.2,28.6,30.33,SW,225,0.0,0.0,80,0.00,,---,0.00,VWS V14.01,2013-01-19 02:03:00,
2013-01-18 18:08:00,33.8,28.6,30.33,SW,225,0.0,0.0,81,0.00,,---,0.00,VWS V14.01,2013-01-19 02:08:00,
2013-01-18 18:13:00,33.3,28.4,30.33,SW,225,0.0,0.0,82,0.00,,---,0.00,VWS V14.01,2013-01-19 02:13:00,
2013-01-18 18:18:00,33.1,28.2,30.33,SW,225,0.0,0.0,82,0.00,,---,0.00,VWS V14.01,2013-01-19 02:18:00,
2013-01-18 18:23:00,32.7,27.8,30.33,SW,225,0.0,0.0,82,0.00,,---,0.00,VWS V14.01,2013-01-19 02:23:00,
2013-01-18 18:28:00,32.5,27.7,30.33,SW,225,0.0,0.0,82,0.00,,---,0.00,VWS V14.01,2013-01-19 02:28:00,
2013-01-18 18:33:00,32.2,27.3,30.33,SW,225,0.0,0.0,82,0.00,,---,0.00,VWS V14.01,2013-01-19 02:33:00,
2013-01-18 18:38:00,32.0,26.8,30.33,SW,225,0.0,0.0,81,0.00,,---,0.00,VWS V14.01,2013-01-19 02:38:00,
2013-01-18 18:44:00,31.5,26.9,30.33,SW,225,0.0,0.0,83,0.00,,---,0.00,VWS V14.01,2013-01-19 02:44:00,
2013-01-18 18:49:00,31.1,26.5,30.33,SW,225,0.0,0.0,83,0.00,,---,0.00,VWS V14.01,2013-01-19 02:49:00,
2013-01-18 18:54:00,30.9,26.7,30.33,SW,225,0.0,0.0,84,0.00,,---,0.00,VWS V14.01,2013-01-19 02:54:00,
2013-01-18 18:59:00,30.4,26.1,30.33,SW,225,0.0,0.0,84,0.00,,---,0.00,VWS V14.01,2013-01-19 02:59:00,
2013-01-18 19:04:00,30.4,26.1,30.36,SW,225,0.0,0.0,84,0.00,,---,0.00,VWS V14.01,2013-01-19 03:04:00,
2013-01-18 19:09:00,30.2,26.2,30.36,SW,225,0.0,0.0,85,0.00,,---,0.00,VWS V14.01,2013-01-19 03:09:00,
2013-01-18 19:14:00,29.8,26.2,30.36,SW,225,0.0,0.0,86,0.00,,---,0.00,VWS V14.01,2013-01-19 03:14:00,
2013-01-18 19:19:00,29.5,25.8,30.36,SW,225,0.0,0.0,86,0.00,,---,0.00,VWS V14.01,2013-01-19 03:19:00,
2013-01-18 19:25:00,29.5,25.8,30.36,SW,225,0.0,0.0,86,0.00,,---,0.00,VWS V14.01,2013-01-19 03:25:00,
2013-01-18 19:30:00,29.1,25.7,30.36,SW,225,0.0,0.0,87,0.00,,---,0.00,VWS V14.01,2013-01-19 03:30:00,
2013-01-18 19:35:00,29.3,25.6,30.33,SW,225,0.0,0.0,86,0.00,,---,0.00,VWS V14.01,2013-01-19 03:35:00,
2013-01-18 19:40:00,29.1,25.7,30.33,SW,225,0.0,0.0,87,0.00,,---,0.00,VWS V14.01,2013-01-19 03:40:00,
2013-01-18 19:45:00,28.8,25.4,30.33,SW,225,0.0,0.0,87,0.00,,---,0.00,VWS V14.01,2013-01-19 03:45:00,
2013-01-18 19:50:00,28.6,25.5,30.33,SW,225,0.0,0.0,88,0.00,,---,0.00,VWS V14.01,2013-01-19 03:50:00,
2013-01-18 19:55:00,28.4,25.3,30.33,SW,225,0.0,0.0,88,0.00,,---,0.00,VWS V14.01,2013-01-19 03:55:00,
2013-01-18 20:01:00,28.4,25.3,30.33,SW,225,0.0,0.0,88,0.00,,---,0.00,VWS V14.01,2013-01-19 04:01:00,
2013-01-18 20:06:00,28.0,25.0,30.33,SW,225,0.0,0.0,88,0.00,,---,0.00,VWS V14.01,2013-01-19 04:06:00,
2013-01-18 20:11:00,28.2,25.1,30.33,SW,225,0.0,0.0,88,0.00,,---,0.00,VWS V14.01,2013-01-19 04:11:00,
2013-01-18 20:16:00,28.2,25.1,30.33,SW,225,0.0,0.0,88,0.00,,---,0.00,VWS V14.01,2013-01-19 04:16:00,
2013-01-18 20:21:00,28.2,25.1,30.33,SW,225,0.0,0.0,88,0.00,,---,0.00,VWS V14.01,2013-01-19 04:21:00,
2013-01-18 20:26:00,28.0,25.2,30.33,SW,225,0.0,0.0,89,0.00,,---,0.00,VWS V14.01,2013-01-19 04:26:00,
2013-01-18 20:32:00,27.9,25.0,30.33,SW,225,0.0,0.0,89,0.00,,---,0.00,VWS V14.01,2013-01-19 04:32:00,
2013-01-18 20:37:00,27.7,24.9,30.33,SW,225,0.0,0.0,89,0.00,,---,0.00,VWS V14.01,2013-01-19 04:37:00,
2013-01-18 20:42:00,27.7,25.1,30.33,SW,225,0.0,0.0,90,0.00,,---,0.00,VWS V14.01,2013-01-19 04:42:00,
2013-01-18 20:47:00,27.5,25.0,30.33,SW,225,0.0,0.0,90,0.00,,---,0.00,VWS V14.01,2013-01-19 04:47:00,
2013-01-18 20:52:00,27.3,24.8,30.33,SW,225,0.0,0.0,90,0.00,,---,0.00,VWS V14.01,2013-01-19 04:52:00,
2013-01-18 20:57:00,27.1,24.6,30.33,SW,225,0.0,0.0,90,0.00,,---,0.00,VWS V14.01,2013-01-19 04:57:00,
2013-01-18 21:00:00,27.0,24.4,30.33,SW,225,0.0,0.0,90,0.00,,---,0.00,VWS V14.01,2013-01-19 05:00:00,
2013-01-18 21:01:00,27.0,24.4,30.33,SW,225,0.0,0.0,90,0.00,,---,0.00,VWS V14.01,2013-01-19 05:01:00,
2013-01-18 21:06:00,27.3,24.8,30.30,SW,225,0.0,0.0,90,0.00,,---,0.00,VWS V14.01,2013-01-19 05:06:00,
2013-01-18 21:11:00,27.3,24.8,30.30,SW,225,0.0,0.0,90,0.00,,---,0.00,VWS V14.01,2013-01-19 05:11:00,
2013-01-18 21:16:00,27.0,24.4,30.30,SW,225,0.0,0.0,90,0.00,,---,0.00,VWS V14.01,2013-01-19 05:16:00,
2013-01-18 21:21:00,26.6,24.1,30.33,SW,225,0.0,0.0,90,0.00,,---,0.00,VWS V14.01,2013-01-19 05:21:00,
2013-01-18 21:26:00,27.0,24.4,30.33,SW,225,0.0,0.0,90,0.00,,---,0.00,VWS V14.01,2013-01-19 05:26:00,
2013-01-18 21:31:00,27.0,24.4,30.33,SW,225,0.0,0.0,90,0.00,,---,0.00,VWS V14.01,2013-01-19 05:31:00,
2013-01-18 21:37:00,26.6,24.3,30.33,SW,225,0.0,0.0,91,0.00,,---,0.00,VWS V14.01,2013-01-19 05:37:00,
2013-01-18 21:42:00,26.4,24.1,30.33,SW,225,0.0,0.0,91,0.00,,---,0.00,VWS V14.01,2013-01-19 05:42:00,
2013-01-18 21:47:00,26.2,24.0,30.33,SW,225,0.0,0.0,91,0.00,,---,0.00,VWS V14.01,2013-01-19 05:47:00,
2013-01-18 21:52:00,26.1,23.8,30.33,SW,225,0.0,0.0,91,0.00,,---,0.00,VWS V14.01,2013-01-19 05:52:00,
2013-01-18 21:57:00,26.1,23.8,30.33,SW,225,0.0,0.0,91,0.00,,---,0.00,VWS V14.01,2013-01-19 05:57:00,
2013-01-18 22:02:00,25.9,23.9,30.33,SW,225,0.0,0.0,92,0.00,,---,0.00,VWS V14.01,2013-01-19 06:02:00,
2013-01-18 22:07:00,25.9,23.9,30.33,SW,225,0.0,0.0,92,0.00,,---,0.00,VWS V14.01,2013-01-19 06:07:00,
2013-01-18 22:12:00,26.2,24.2,30.33,SW,225,0.0,0.0,92,0.00,,---,0.00,VWS V14.01,2013-01-19 06:12:00,
2013-01-18 22:17:00,26.2,24.2,30.33,SW,225,0.0,0.0,92,0.00,,---,0.00,VWS V14.01,2013-01-19 06:17:00,
2013-01-18 22:22:00,26.2,24.2,30.33,SW,225,0.0,0.0,92,0.00,,---,0.00,VWS V14.01,2013-01-19 06:22:00,
2013-01-18 22:28:00,26.1,24.1,30.33,SW,225,0.0,0.0,92,0.00,,---,0.00,VWS V14.01,2013-01-19 06:28:00,
2013-01-18 22:33:00,25.9,23.9,30.33,SW,225,0.0,0.0,92,0.00,,---,0.00,VWS V14.01,2013-01-19 06:33:00,
2013-01-18 22:38:00,25.7,23.7,30.33,SW,225,0.0,0.0,92,0.00,,---,0.00,VWS V14.01,2013-01-19 06:38:00,
2013-01-18 22:43:00,25.5,23.5,30.33,SW,225,0.0,0.0,92,0.00,,---,0.00,VWS V14.01,2013-01-19 06:43:00,
2013-01-18 22:48:00,25.3,23.4,30.33,SW,225,0.0,0.0,92,0.00,,---,0.00,VWS V14.01,2013-01-19 06:48:00,
2013-01-18 22:53:00,25.3,23.4,30.33,SW,225,0.0,0.0,92,0.00,,---,0.00,VWS V14.01,2013-01-19 06:53:00,
2013-01-18 22:58:00,25.3,23.6,30.33,SW,225,0.0,0.0,93,0.00,,---,0.00,VWS V14.01,2013-01-19 06:58:00,
2013-01-18 23:03:00,25.5,23.8,30.33,SW,225,0.0,0.0,93,0.00,,---,0.00,VWS V14.01,2013-01-19 07:03:00,
2013-01-18 23:08:00,25.7,24.0,30.33,SW,225,0.0,0.0,93,0.00,,---,0.00,VWS V14.01,2013-01-19 07:08:00,
2013-01-18 23:13:00,25.7,24.0,30.33,SW,225,0.0,0.0,93,0.00,,---,0.00,VWS V14.01,2013-01-19 07:13:00,
2013-01-18 23:18:00,25.3,23.6,30.33,SW,225,0.0,0.0,93,0.00,,---,0.00,VWS V14.01,2013-01-19 07:18:00,
2013-01-18 23:23:00,25.2,23.4,30.33,SW,225,0.0,0.0,93,0.00,,---,0.00,VWS V14.01,2013-01-19 07:23:00,
2013-01-18 23:28:00,25.0,23.2,30.33,SW,225,0.0,0.0,93,0.00,,---,0.00,VWS V14.01,2013-01-19 07:28:00,
2013-01-18 23:33:00,25.0,23.2,30.33,SW,225,0.0,0.0,93,0.00,,---,0.00,VWS V14.01,2013-01-19 07:33:00,
2013-01-18 23:38:00,25.2,23.7,30.33,SW,225,0.0,0.0,94,0.00,,---,0.00,VWS V14.01,2013-01-19 07:38:00,
2013-01-18 23:43:00,25.2,23.7,30.33,SW,225,0.0,0.0,94,0.00,,---,0.00,VWS V14.01,2013-01-19 07:43:00,
2013-01-18 23:48:00,25.2,23.7,30.33,SW,225,0.0,0.0,94,0.00,,---,0.00,VWS V14.01,2013-01-19 07:48:00,
2013-01-18 23:53:00,25.2,23.7,30.33,SW,225,0.0,0.0,94,0.00,,---,0.00,VWS V14.01,2013-01-19 07:53:00,
2013-01-18 23:58:00,25.0,23.5,30.33,SW,225,0.0,0.0,94,0.00,,---,0.00,VWS V14.01,2013-01-19 07:58:00,